Tracking 20241 objects as of 26-Jan-2020
HD Live streaming from Space Station
objects crossing your sky now

FENGYUN 1C DEB

Track FENGYUN 1C DEB now!
10-day predictions


NORAD ID: 30575
Int'l Code: 1999-025ALR
Perigee: 754.9 km
Apogee: 846.2 km
Inclination: 99.2 °
Period: 100.7 minutes
Semi major axis: 7171 km
RCS: 0.029 m2 (small)
Launch date: May 10, 1999
Source: People's Republic of China (PRC)
Launch site: Taiyaun Space Center, China (TSC)

Note: This is SATELLITE DEBRIS
aabbcc
Your satellite tracking list
Your tracking list is empty




NASA's NSSDC Master Catalog

Two Line Element Set (TLE):
1 30575U 99025ALR 20026.38984839  .00000218  00000-0  10250-3 0  9999
2 30575  99.1680 315.7609 0063702 339.4752 145.4798 14.29495175674784
Source of the keplerian elements: AFSPC